AirNav  
 
 962 users online  

WN92 Sky Meadows Airpark
Spokane, Washington, USA

GOING TO SPOKANE?


FAA INFORMATION EFFECTIVE 25 FEBRUARY 2021

Location

FAA Identifier: WN92
Lat/Long: 47-36-30.6280N 117-10-50.7260W
47-36.510467N 117-10.845433W
47.6085078,-117.1807572
(estimated)
Elevation: 2350 ft. / 716 m (estimated)
Variation: 19E (1985)
From city: 8 miles SE of SPOKANE, WA
Time zone: UTC -8 (UTC -7 during Daylight Saving Time)
Zip code: 99016

Airport Operations

Airport use: Private use. Permission required prior to landing
Activation date: 01/1988
Control tower: no
ARTCC: SEATTLE CENTER
FSS: SEATTLE FLIGHT SERVICE STATION
Attendance: UNATNDD
Wind indicator: yes
Segmented circle: no
Lights: ACTVT MIRL RY 16/34 - 122.9.

Airport Communications

WX ASOS at SFF (7 nm NW): 120.55 (509-535-3290)
WX ASOS at GEG (14 nm W): PHONE 509-624-4406
WX AWOS-3PT at COE (18 nm NE): 135.075 (208-772-8215)

Nearby radio navigation aids

VOR radial/distance  VOR name  Freq  Var
COEr217/17.6COEUR D'ALENE VOR/DME108.8019E
GEGr061/18.2SPOKANE VORTAC115.5021E

 
NDB name  Hdg/Dist  Freq  Var  ID
DEER PARK139/23.736516EDPY -.. .--. -.--

Airport Services

Runway Information

Runway 16/34

Dimensions: 3100 x 100 ft. / 945 x 30 m
Surface: turf, in good condition
Runway edge lights: medium intensity
RUNWAY 16  RUNWAY 34
Traffic pattern: leftleft
Displaced threshold: no400 ft.

Airport Ownership and Management from official FAA records

Ownership: Privately-owned
Owner: SKY MEADOWS AIRPARK ASSOC
16616 E 44TH AVE
GREENACRES, WA 99016
Phone (509) 999-1505
OR CALL 509-926-1636 (EVENINGS).
Manager: LARRY HOWARD
16616 E 44TH AVE
GREENACRES, WA 99016
Phone (509) 999-1505
OR 509-926-1636 (EVENINGS).

Airport Operational Statistics

Aircraft based on the field: 7
Single engine airplanes: 7
    

Additional Remarks

FOR CD CTC SPOKANE APCH AT 509-742-2522

Instrument Procedures

There are no published instrument procedures at WN92.

Some nearby airports with instrument procedures:

KSFF - Felts Field Airport (7 nm NW)
KGEG - Spokane International Airport (14 nm W)
KCOE - Coeur d'Alene Airport - Pappy Boyington Field (18 nm NE)
KSKA - Fairchild Air Force Base (19 nm W)
KDEW - Deer Park Airport (24 nm NW)
 
Loc | Ops | Rwys | IFR | FBO | Links
Com | Nav | Svcs | Stats | Notes
Area around WN92 (Sky Meadows Airpark)
 
Road maps at: MapQuest Bing Google
 
Aerial photo
WARNING: Photo may not be current or correct
Aerial photo of WN92 (Sky Meadows Airpark)
Do you have a better or more recent aerial photo of Sky Meadows Airpark that you would like to share? If so, please send us your photo.

 
Sectional chart

 
Airport distance calculator
Flying to Sky Meadows Airpark? Find the distance to fly.

From to WN92

Sunrise and sunset
Times for 07-Mar-2021
 Local
(UTC-8)
 Zulu
(UTC)
Morning civil twilight05:4813:48
Sunrise06:1914:19
Sunset17:4101:41
Evening civil twilight18:1202:12

Current date and time
Zulu (UTC)  07-Mar-2021 14:20:48
Local (UTC-8)  07-Mar-2021 06:20:48
 
METAR
KSFF 
7nm NW 
071353Z 06004KT 10SM OVC070 03/M02 A3000 RMK AO2 SLP167 T00331022
KGEG 
14nm W 
071353Z 15007KT 10SM BKN055 OVC065 02/M03 A2997 RMK AO2 SLP162 VCSH SE-SW T00221028
KCOE 
18nm NE 
071356Z AUTO 00000KT 10SM BKN060 M01/M02 A3001 RMK AO2 SLP198 T10061017 FZRANO
KSKA 
19nm W 
071357Z 14005KT 10SM FEW027 SCT035 OVC046 02/M01 A2996 RMK AO2A SLP164 T00161007 $
TAF
KSFF 
7nm NW 
071125Z 0712/0812 05004KT P6SM SCT060 BKN120 FM071700 22009KT P6SM VCSH BKN050 OVC120 TEMPO 0718/0720 -RA OVC040 FM072000 22010G16KT P6SM SCT060 BKN200 FM080100 VRB02KT P6SM FEW060 SCT180
KGEG 
14nm W 
071125Z 0712/0812 14007KT P6SM SCT060 BKN120 FM071600 22011G18KT P6SM VCSH BKN050 OVC120 TEMPO 0717/0719 -SNRA OVC040 FM072000 21014G20KT P6SM SCT050 SCT200 FM080100 22008KT P6SM FEW060 SCT180
KCOE 
18nm NE 
071125Z 0712/0812 12005KT P6SM SCT060 BKN120 FM071800 20008KT P6SM VCSH BKN060 BKN120 TEMPO 0718/0721 -SNRA OVC030 FM072200 21010KT P6SM BKN050 FM080200 18004KT P6SM SCT050 BKN150
KSKA 
19nm W 
071100Z 0711/0817 16009KT 9999 FEW080 SCT200 QNH2994INS BECMG 0715/0716 19012KT 9999 FEW020 OVC050 620506 QNH2996INS BECMG 0718/0719 18015G20KT 9999 FEW030 BKN060 610609 QNH2999INS BECMG 0801/0802 21012KT 9999 SCT080 QNH3008INS WND VRB06KT AFT 0805 TX05/0800Z TNM01/0809Z
NOTAMs
Click for the latest NOTAMs
NOTAMs are issued by the DoD/FAA and will open in a separate window not controlled by AirNav.

 

 
 

Would you like to see your business listed on this page?

 If your business provides an interesting product or service to pilots, flight crews, aircraft, or users of the Sky Meadows Airpark, you should consider listing it here.  To start the listing process, click on the button below
 
Add a business
 

Other Pages about Sky Meadows Airpark

Update a link
 
Copyright © AirNav, LLC. All rights reserved. Privacy Policy  Contact